Weather in Bago

Myanmar     17°19′24″N   96°29′19″E
temp.,
°C
wind,
m/s
gust,
m/s
humid.,
%
clouds,
%
prec.,
mm/h
press.,
hPa
HPBL,
m
19 april, mon
mon1900:30+27sse12750 0.3 100948
03:30+26ssw22790 0.9 100870
06:30+27ssw12770 0.9 1010126
09:30+31ssw11520 0.0 10111117
12:30+36ssw12381 0.0 10081993
15:30+37ese343059 0.0 10042652
18:30+32s6105489 0.0 1005520
21:30+29ssw586778 1.2 1008544
20 april, tue
tue2000:30+28sw47643 1.4 1007408
03:30+27ssw35721 0.0 1007413
06:30+27s24741 0.0 1009412
09:30+31s34526 0.0 10111235
12:30+35s33370 0.0 10081999
15:30+37sse433055 0.0 10042685
18:30+32s69501 0.0 1006686
21:30+29s59660 0.3 1008531
21 april, wed
wed2100:30+28wsw48679 0.3 1008428
03:30+27sw23740 0.0 1008219
06:30+27ssw12740 0.0 1010251
09:30+32s22520 0.0 10111137
12:30+36ssw32355 0.0 10081983
15:30+38sse322911 0.0 10052801
18:30+33s79485 0.0 1006554
21:30+31sw610585 0.0 1009838
22 april, thu
thu2200:30+28sw48685 0.0 1008527
03:30+27sw36740 0.0 1008561
06:30+27ssw24750 0.0 1010497
09:30+32sw34490 0.0 10111179
12:30+37ssw33330 0.0 10082147
15:30+39s34271 0.0 10042995
18:30+32s810520 0.0 1005696
21:30+30ssw47650 0.0 1008628
23 april, fri
fri2300:30+28wsw48670 0.0 1007490
03:30+27sw357316 0.0 1007545
06:30+27sw35742 0.0 1009579
09:30+32ssw33515 0.0 10101149
12:30+38ssw44310 0.0 10062049
15:30+40s34238 0.0 10033171
18:30+32sse810540 0.0 1005740
21:30+31ssw47630 0.0 1007734